Time,TemperatureF,DewpointF,PressureIn,WindDirection,WindDirectionDegrees,WindSpeedMPH,WindSpeedGustMPH,Humidity,HourlyPrecipIn,Conditions,Clouds,dailyrainin,SoftwareType,DateUTC
2013-01-08 00:05:00,44.7,38.0,30.21,East,81,1.0,4.0,76,0.00,,,0.00,weatherlink.com 1.10,2013-01-08 06:05:00,
2013-01-08 00:20:00,44.8,38.0,30.20,East,89,1.0,5.0,76,0.00,,,0.00,weatherlink.com 1.10,2013-01-08 06:20:00,
2013-01-08 00:35:00,44.7,38.0,30.20,East,83,1.0,3.0,77,0.00,,,0.00,weatherlink.com 1.10,2013-01-08 06:35:00,
2013-01-08 00:50:00,44.4,38.0,30.20,East,86,2.0,3.0,78,0.00,,,0.00,weatherlink.com 1.10,2013-01-08 06:50:00,
2013-01-08 01:05:00,43.9,38.0,30.21,ESE,122,0.0,2.0,80,0.00,,,0.00,weatherlink.com 1.10,2013-01-08 07:05:00,
2013-01-08 01:20:00,43.7,38.0,30.21,East,101,1.0,3.0,80,0.00,,,0.00,weatherlink.com 1.10,2013-01-08 07:20:00,
2013-01-08 01:36:00,44.0,38.0,30.21,ENE,60,1.0,4.0,80,0.00,,,0.00,weatherlink.com 1.10,2013-01-08 07:36:00,
2013-01-08 01:51:00,44.0,38.0,30.21,East,86,1.0,6.0,80,0.00,,,0.00,weatherlink.com 1.10,2013-01-08 07:51:00,
2013-01-08 02:06:00,43.9,38.0,30.20,East,91,2.0,3.0,80,0.00,,,0.00,weatherlink.com 1.10,2013-01-08 08:06:00,
2013-01-08 02:21:00,44.0,39.0,30.20,ESE,113,2.0,4.0,81,0.00,,,0.00,weatherlink.com 1.10,2013-01-08 08:21:00,
2013-01-08 02:36:00,44.2,38.0,30.20,East,96,3.0,7.0,80,0.00,,,0.00,weatherlink.com 1.10,2013-01-08 08:36:00,
2013-01-08 02:51:00,44.4,39.0,30.20,ENE,73,2.0,5.0,81,0.00,,,0.00,weatherlink.com 1.10,2013-01-08 08:51:00,
2013-01-08 03:06:00,44.9,39.0,30.20,East,98,2.0,5.0,80,0.00,,,0.00,weatherlink.com 1.10,2013-01-08 09:06:00,
2013-01-08 03:21:00,45.3,40.0,30.19,East,79,6.0,6.0,80,0.00,,,0.00,weatherlink.com 1.10,2013-01-08 09:21:00,
2013-01-08 03:36:00,45.6,40.0,30.19,ENE,65,3.0,6.0,80,0.00,,,0.00,weatherlink.com 1.10,2013-01-08 09:36:00,
2013-01-08 03:51:00,45.7,40.0,30.19,ENE,73,4.0,7.0,80,0.00,,,0.00,weatherlink.com 1.10,2013-01-08 09:51:00,
2013-01-08 04:06:00,45.7,40.0,30.19,ESE,107,3.0,7.0,80,0.00,,,0.00,weatherlink.com 1.10,2013-01-08 10:06:00,
2013-01-08 04:21:00,46.0,40.0,30.19,ENE,71,6.0,6.0,79,0.00,,,0.00,weatherlink.com 1.10,2013-01-08 10:21:00,
2013-01-08 04:36:00,45.9,40.0,30.20,East,81,4.0,6.0,79,0.00,,,0.00,weatherlink.com 1.10,2013-01-08 10:36:00,
2013-01-08 04:51:00,46.0,40.0,30.20,East,86,3.0,5.0,79,0.00,,,0.00,weatherlink.com 1.10,2013-01-08 10:51:00,
2013-01-08 05:06:00,46.2,40.0,30.21,ENE,74,4.0,6.0,79,0.00,,,0.00,weatherlink.com 1.10,2013-01-08 11:06:00,
2013-01-08 05:21:00,46.5,40.0,30.21,ENE,77,3.0,5.0,78,0.00,,,0.00,weatherlink.com 1.10,2013-01-08 11:21:00,
2013-01-08 05:36:00,46.6,40.0,30.22,ESE,117,3.0,7.0,77,0.00,,,0.00,weatherlink.com 1.10,2013-01-08 11:36:00,
2013-01-08 05:51:00,46.1,40.0,30.22,East,82,3.0,7.0,78,0.00,,,0.00,weatherlink.com 1.10,2013-01-08 11:51:00,
2013-01-08 06:06:00,45.6,39.0,30.22,ENE,64,3.0,8.0,79,0.00,,,0.00,weatherlink.com 1.10,2013-01-08 12:06:00,
2013-01-08 06:21:00,45.4,40.0,30.22,ENE,70,2.0,8.0,80,0.00,,,0.00,weatherlink.com 1.10,2013-01-08 12:21:00,
2013-01-08 06:36:00,45.1,39.0,30.23,ENE,58,2.0,5.0,80,0.00,,,0.00,weatherlink.com 1.10,2013-01-08 12:36:00,
2013-01-08 06:51:00,45.0,40.0,30.23,East,89,1.0,5.0,81,0.00,,,0.00,weatherlink.com 1.10,2013-01-08 12:51:00,
2013-01-08 07:06:00,44.7,40.0,30.24,East,86,0.0,2.0,82,0.00,,,0.00,weatherlink.com 1.10,2013-01-08 13:06:00,
2013-01-08 07:21:00,45.4,40.0,30.25,ESE,110,2.0,3.0,81,0.00,,,0.00,weatherlink.com 1.10,2013-01-08 13:21:00,
2013-01-08 07:36:00,46.1,41.0,30.25,ENE,72,1.0,3.0,81,0.00,,,0.00,weatherlink.com 1.10,2013-01-08 13:36:00,
2013-01-08 07:51:00,46.8,41.0,30.26,East,89,1.0,4.0,80,0.00,,,0.00,weatherlink.com 1.10,2013-01-08 13:51:00,
2013-01-08 08:06:00,47.4,41.0,30.26,ENE,68,3.0,5.0,79,0.00,,,0.00,weatherlink.com 1.10,2013-01-08 14:06:00,
2013-01-08 08:21:00,48.3,42.0,30.26,East,88,3.0,5.0,78,0.00,,,0.00,weatherlink.com 1.10,2013-01-08 14:21:00,
2013-01-08 08:36:00,49.9,43.0,30.26,East,96,3.0,6.0,77,0.00,,,0.00,weatherlink.com 1.10,2013-01-08 14:36:00,
2013-01-08 08:51:00,50.6,43.0,30.26,ENE,58,3.0,6.0,76,0.00,,,0.00,weatherlink.com 1.10,2013-01-08 14:51:00,
2013-01-08 09:06:00,51.2,44.0,30.26,East,96,4.0,6.0,76,0.00,,,0.00,weatherlink.com 1.10,2013-01-08 15:06:00,
2013-01-08 09:21:00,51.2,44.0,30.27,ENE,76,3.0,8.0,77,0.00,,,0.00,weatherlink.com 1.10,2013-01-08 15:21:00,
2013-01-08 09:36:00,51.3,45.0,30.28,East,96,4.0,4.0,78,0.00,,,0.00,weatherlink.com 1.10,2013-01-08 15:36:00,
2013-01-08 09:51:00,51.7,45.0,30.28,East,84,3.0,5.0,77,0.00,,,0.00,weatherlink.com 1.10,2013-01-08 15:51:00,
2013-01-08 10:07:00,52.2,46.0,30.28,East,86,1.0,5.0,78,0.00,,,0.00,weatherlink.com 1.10,2013-01-08 16:07:00,
2013-01-08 10:22:00,52.6,47.0,30.25,East,90,4.0,6.0,80,0.00,,,0.00,weatherlink.com 1.10,2013-01-08 16:22:00,
2013-01-08 10:37:00,53.1,47.0,30.26,East,89,3.0,7.0,81,0.00,,,0.00,weatherlink.com 1.10,2013-01-08 16:37:00,
2013-01-08 10:52:00,54.3,48.0,30.26,ENE,75,4.0,5.0,79,0.00,,,0.00,weatherlink.com 1.10,2013-01-08 16:52:00,
2013-01-08 11:07:00,54.3,48.0,30.25,East,83,1.0,5.0,80,0.00,,,0.00,weatherlink.com 1.10,2013-01-08 17:07:00,
2013-01-08 11:22:00,54.7,48.0,30.25,East,89,3.0,7.0,79,0.00,,,0.00,weatherlink.com 1.10,2013-01-08 17:22:00,
2013-01-08 11:37:00,55.1,48.0,30.25,East,96,1.0,5.0,78,0.00,,,0.00,weatherlink.com 1.10,2013-01-08 17:37:00,
2013-01-08 11:52:00,55.5,49.0,30.25,SE,124,0.0,2.0,78,0.00,,,0.00,weatherlink.com 1.10,2013-01-08 17:52:00,
2013-01-08 12:07:00,55.6,49.0,30.25,East,101,1.0,3.0,77,0.00,,,0.00,weatherlink.com 1.10,2013-01-08 18:07:00,
2013-01-08 12:22:00,55.8,49.0,30.23,East,87,0.0,2.0,77,0.00,,,0.00,weatherlink.com 1.10,2013-01-08 18:22:00,
2013-01-08 12:37:00,56.3,49.0,30.22,East,91,2.0,3.0,77,0.00,,,0.00,weatherlink.com 1.10,2013-01-08 18:37:00,
2013-01-08 12:52:00,56.6,49.0,30.22,ESE,114,0.0,2.0,77,0.00,,,0.00,weatherlink.com 1.10,2013-01-08 18:52:00,
2013-01-08 13:07:00,56.4,50.0,30.21,ENE,68,1.0,5.0,78,0.00,,,0.00,weatherlink.com 1.10,2013-01-08 19:07:00,
2013-01-08 13:22:00,56.7,50.0,30.20,ENE,77,3.0,4.0,79,0.00,,,0.00,weatherlink.com 1.10,2013-01-08 19:22:00,
2013-01-08 13:37:00,56.9,50.0,30.20,ENE,67,1.0,4.0,78,0.00,,,0.00,weatherlink.com 1.10,2013-01-08 19:37:00,
2013-01-08 13:52:00,57.6,50.0,30.19,ENE,68,2.0,5.0,77,0.00,,,0.00,weatherlink.com 1.10,2013-01-08 19:52:00,
2013-01-08 14:22:00,58.6,51.0,30.19,ENE,75,3.0,4.0,76,0.00,,,0.00,weatherlink.com 1.10,2013-01-08 20:22:00,
2013-01-08 14:37:00,58.4,51.0,30.19,East,84,3.0,4.0,76,0.00,,,0.00,weatherlink.com 1.10,2013-01-08 20:37:00,
2013-01-08 14:52:00,59.1,51.0,30.19,SSE,152,0.0,3.0,75,0.00,,,0.00,weatherlink.com 1.10,2013-01-08 20:52:00,
2013-01-08 15:07:00,59.0,51.0,30.20,East,91,0.0,3.0,76,0.00,,,0.00,weatherlink.com 1.10,2013-01-08 21:07:00,
2013-01-08 15:22:00,58.8,52.0,30.20,East,83,0.0,2.0,77,0.00,,,0.00,weatherlink.com 1.10,2013-01-08 21:22:00,
2013-01-08 15:37:00,58.8,52.0,30.20,East,101,1.0,2.0,77,0.00,,,0.00,weatherlink.com 1.10,2013-01-08 21:37:00,
2013-01-08 15:52:00,58.9,52.0,30.20,East,84,0.0,1.0,77,0.00,,,0.00,weatherlink.com 1.10,2013-01-08 21:52:00,
2013-01-08 16:07:00,59.0,52.0,30.20,SE,127,0.0,1.0,78,0.00,,,0.00,weatherlink.com 1.10,2013-01-08 22:07:00,
2013-01-08 16:37:00,58.6,52.0,30.20,SSE,163,0.0,1.0,79,0.00,,,0.00,weatherlink.com 1.10,2013-01-08 22:37:00,
2013-01-08 16:52:00,58.1,52.0,30.19,SSE,156,0.0,0.0,80,0.00,,,0.00,weatherlink.com 1.10,2013-01-08 22:52:00,
2013-01-08 17:07:00,57.8,52.0,30.20,WSW,257,1.0,1.0,81,0.00,,,0.00,weatherlink.com 1.10,2013-01-08 23:07:00,
2013-01-08 17:22:00,57.5,52.0,30.19,East,93,0.0,1.0,81,0.00,,,0.00,weatherlink.com 1.10,2013-01-08 23:22:00,
2013-01-08 17:37:00,57.4,52.0,30.19,ESE,114,0.0,1.0,82,0.00,,,0.00,weatherlink.com 1.10,2013-01-08 23:37:00,
2013-01-08 17:52:00,57.2,52.0,30.19,East,86,0.0,1.0,83,0.00,,,0.00,weatherlink.com 1.10,2013-01-08 23:52:00,
2013-01-08 18:07:00,57.2,52.0,30.19,SW,224,0.0,1.0,83,0.00,,,0.00,weatherlink.com 1.10,2013-01-09 00:07:00,
2013-01-08 18:22:00,57.2,52.0,30.19,South,174,0.0,2.0,83,0.00,,,0.00,weatherlink.com 1.10,2013-01-09 00:22:00,
2013-01-08 18:37:00,57.6,53.0,30.18,East,91,1.0,3.0,83,0.00,,,0.00,weatherlink.com 1.10,2013-01-09 00:37:00,
2013-01-08 18:52:00,58.1,53.0,30.19,East,88,0.0,3.0,83,0.00,,,0.00,weatherlink.com 1.10,2013-01-09 00:52:00,
2013-01-08 19:07:00,58.4,53.0,30.19,ENE,68,0.0,3.0,82,0.00,,,0.00,weatherlink.com 1.10,2013-01-09 01:07:00,
2013-01-08 19:22:00,58.4,53.0,30.19,East,80,2.0,3.0,83,0.00,,,0.00,weatherlink.com 1.10,2013-01-09 01:22:00,
2013-01-08 19:37:00,58.9,53.0,30.19,East,83,1.0,5.0,82,0.00,,,0.00,weatherlink.com 1.10,2013-01-09 01:37:00,
2013-01-08 19:52:00,59.0,54.0,30.19,East,84,1.0,5.0,82,0.00,,,0.00,weatherlink.com 1.10,2013-01-09 01:52:00,
2013-01-08 20:07:00,59.0,54.0,30.19,East,94,1.0,6.0,82,0.00,,,0.00,weatherlink.com 1.10,2013-01-09 02:07:00,
2013-01-08 20:22:00,59.1,54.0,30.19,ESE,117,2.0,3.0,82,0.00,,,0.00,weatherlink.com 1.10,2013-01-09 02:22:00,
2013-01-08 20:37:00,59.1,54.0,30.18,ENE,67,3.0,4.0,82,0.00,,,0.00,weatherlink.com 1.10,2013-01-09 02:37:00,
2013-01-08 20:52:00,59.0,54.0,30.19,ESE,105,3.0,4.0,82,0.00,,,0.00,weatherlink.com 1.10,2013-01-09 02:52:00,
2013-01-08 21:22:00,59.0,54.0,30.19,ENE,77,4.0,4.0,82,0.00,,,0.00,weatherlink.com 1.10,2013-01-09 03:22:00,
2013-01-08 21:37:00,59.0,54.0,30.19,East,97,0.0,3.0,82,0.00,,,0.00,weatherlink.com 1.10,2013-01-09 03:37:00,
2013-01-08 21:52:00,59.2,54.0,30.20,ENE,78,1.0,3.0,82,0.00,,,0.00,weatherlink.com 1.10,2013-01-09 03:52:00,
2013-01-08 22:07:00,59.5,54.0,30.20,ENE,76,2.0,4.0,81,0.00,,,0.00,weatherlink.com 1.10,2013-01-09 04:07:00,
2013-01-08 22:22:00,59.4,54.0,30.20,ENE,69,1.0,5.0,82,0.00,,,0.00,weatherlink.com 1.10,2013-01-09 04:22:00,
2013-01-08 22:37:00,59.3,54.0,30.21,ESE,104,2.0,4.0,82,0.00,,,0.00,weatherlink.com 1.10,2013-01-09 04:37:00,
2013-01-08 22:53:00,59.0,54.0,30.21,ENE,58,4.0,7.0,83,0.00,,,0.00,weatherlink.com 1.10,2013-01-09 04:53:00,
2013-01-08 23:08:00,59.0,54.0,30.21,East,83,3.0,4.0,83,0.00,,,0.00,weatherlink.com 1.10,2013-01-09 05:08:00,
2013-01-08 23:23:00,58.9,54.0,30.21,East,83,0.0,6.0,84,0.00,,,0.00,weatherlink.com 1.10,2013-01-09 05:23:00,
2013-01-08 23:38:00,58.8,54.0,30.21,ENE,60,1.0,4.0,84,0.00,,,0.00,weatherlink.com 1.10,2013-01-09 05:38:00,
2013-01-08 23:53:00,58.8,54.0,30.21,SE,131,1.0,6.0,85,0.00,,,0.00,weatherlink.com 1.10,2013-01-09 05:53:00,